DECAYED
Showing default

SPACEBEE-6, 43818 (Decayed)

Orbit data source: Space-Track

SPACEBEE-6, 43818 was a payload satellite owned by Swarm Tech (US) in LEO that was launched on Mon, 03 Dec 2018 UTC via an FALCON 9 launch vehicle from the Air Force Western Test Range (AFWTR). Payload-class satellites include a variety of spacecraft equipped with specific instruments for various scientific and technological missions. These include communications satellites like Starlink; space stations such as the ISS; scientific satellites like the Hubble; Earth observation satellites from companies like Planet Labs, Umbra, and HawkEye 360; GPS; miniature CubeSats for education and research; and military/defense satellites.

Not visible in the next 10 days
Identifier
43818, 2018-099BN
Orbit
Decayed
Country
Flag of USUS
Related business
Manufacturer
Swarm Tech
Mission
Decayed Commercial Communications
Bus & Motor
CUBESAT 1U, Unknown motor
Mass
1 kg wet, 1 kg dry
Launch date (UTC)
2018-12-03 (7 years ago)
Launch vehicle
FALCON 9
Launch site
Air Force Western Test Range (AFWTR)
Object type
Payload
Rocket body
Debris
Shape & HBR
Box, 0.1 m
Radar Cross Section
0.017 m², Small (<0.1 m²)

Expand to show TLE details & history
Last TLE update: 1 year ago

TLE from 1 year ago
0 SPACEBEE-6
1 43818U 18099BN  25010.48851419  .16961137  26159-5  51406-3 0  9990
2 43818  97.4834  92.6686 0012345 275.1930  84.7963 16.44020427334894
Epoch: 2025-01-10T11:43Z
TLE epoch observation values (Epoch: 2025-01-10T11:43:27.626Z)
Latitude
0.00007°
Longitude
166.55159°
Altitude
157.662 km
Speed
7.812 km/s
True Right ascension
06h 10m 40s
True Declination
0° 00' 00"
Sunlit
Object was in full shadow at epoch
Visualization orbit readout
Latitude
Unknown
Longitude
Unknown
Altitude
Unknown
Speed
Unknown
Apparent Right ascension
Unknown
Apparent Declination
Unknown
Sunlit
N/A
Visualization observer readout
Local Sidereal Time
02:22:50
Azimuth
Unknown
Elevation
Unknown
Doppler factor
Unknown
Orbital elements
Apogee altitude
159.997 km
Perigee altitude
143.874 km
Semi-major axis
6,530.073 km
Eccentricity
0.00123
Inclination
97.4834°
RAAN
92.6686°
Arg. of periapsis
275.193°
True anomaly
84.9372°
Mean anomaly
84.7963°
Eccentric anomaly
84.86675°
Mean motion
4.11307 °/min
Orbital period
87.53 mins
BSTAR
0.00051406
Loading maneuver chart data...
Computing Atmospheric mass density...
Loading historical data...
Loading historical data...
Loading historical data...
Loading historical data...
Loading historical data...
Loading historical data...
Loading historical data...

Documentation

Showing up to 5 results
|